This demonstration page uses our WeatherBlox Daily Observations layout. Learn more.

40.92945, -100.16068

Hourly Observations for October 3, 2019

Temp ( °F °C ) Dew Point ( °F °C ) Humidity (%) Winds ( mph kmh ) Pressure ( in mb ) Visibility ( mi km ) Precip ( " mm )
12:15 am 00:15 Clear 41 5.1 41 5 99 99 NW 5 7 30.24 1024 10 16.0934 0 0
12:35 am 00:35 Clear 40 4.7 40 4.7 100 100 Calm 30.24 1024 10 16.0934 0 0
12:55 am 00:55 Clear 40 4.5 40 4.4 99 99 W 3 6 30.24 1024 10 16.0934 0 0
1:15 am 01:15 Clear 40 4.2 40 4.2 100 100 WSW 6 9 30.25 1024 10 16.0934 0 0
1:35 am 01:35 Clear 40 4.2 40 4.2 100 100 W 5 7 30.25 1024 10 16.0934 0 0
1:55 am 01:55 Clear 40 4.2 40 4.2 100 100 W 5 7 30.26 1025 10 16.0934 0 0
2:15 am 02:15 Clear 40 4.3 40 4.3 100 100 Calm 30.27 1025 10 16.0934 0 0
2:35 am 02:35 Clear 39 3.7 39 3.7 100 100 N 5 7 30.28 1025 10 16.0934 0 0
2:55 am 02:55 Clear 38 3.5 38 3.5 100 100 NNW 5 7 30.28 1025 10 16.0934 0 0
3:15 am 03:15 Clear 38 3.4 38 3.4 100 100 N 5 7 30.28 1026 10 16.0934 0 0
3:35 am 03:35 Clear 38 3.2 38 3.2 100 100 NW 5 7 30.29 1026 10 16.0934 0 0
3:55 am 03:55 Clear 38 3.3 38 3.3 100 100 NW 5 7 30.3 1026 10 16.0934 0 0
4:15 am 04:15 Clear 37 2.9 37 2.9 100 100 NW 5 7 30.31 1026 10 16.0934 0 0
4:35 am 04:35 Clear 37 2.5 37 2.5 100 100 WNW 6 9 30.31 1027 10 16.0934 0 0
4:55 am 04:55 Clear 37 2.7 37 2.7 100 100 Calm 30.32 1027 10 16.0934 0 0
5:15 am 05:15 Clear 36 2.4 36 2.4 100 100 SW 3 6 30.33 1027 10 16.0934 0 0
5:35 am 05:35 Clear 37 2.5 37 2.5 100 100 Calm 30.34 1028 10 16.0934 0 0
5:55 am 05:55 Mostly Cloudy 36 2.4 36 2.4 100 100 SSE 3 6 30.35 1028 10 16.0934 0 0
6:15 am 06:15 Cloudy 38 3.2 38 3.2 100 100 Calm 30.36 1028 10 16.0934 0 0
6:35 am 06:35 Cloudy with Mist and Fog 39 3.8 39 3.8 100 100 Calm 30.36 1028 4 6.43736 0 0
6:55 am 06:55 Cloudy with Fog 39 4 39 4 100 100 Calm 30.36 1028 0.5 0.80467 0 0
7:15 am 07:15 Cloudy with Fog 39 4 39 4 100 100 Calm 30.37 1028 0.25 0.402335 0 0
7:35 am 07:35 Cloudy with Fog 39 3.8 39 3.8 100 100 Calm 30.37 1028 0.25 0.402335 0 0
7:55 am 07:55 Cloudy with Fog 38 3.6 38 3.6 100 100 WNW 3 6 30.38 1029 5 8.0467 0 0
8:15 am 08:15 Cloudy with Fog 38 3.6 38 3.6 100 100 Calm 30.38 1029 5 8.0467 0 0
8:35 am 08:35 Cloudy with Fog 38 3.5 38 3.5 100 100 Calm 30.39 1029 5 8.0467 0 0
8:55 am 08:55 Cloudy with Fog 38 3.6 38 3.6 100 100 NNW 7 11 30.39 1029 5 8.0467 0 0
9:15 am 09:15 Cloudy with Fog 39 3.8 39 3.8 100 100 NNW 3 6 30.4 1029 5 8.0467 0 0
9:35 am 09:35 Cloudy with Fog 40 4.3 40 4.3 100 100 NW 7 11 30.4 1029 5 8.0467 0 0
9:55 am 09:55 Cloudy with Fog 41 4.9 41 4.9 100 100 NNW 5 7 30.39 1029 5 8.0467 0 0
10:15 am 10:15 Cloudy with Fog 41 5.2 41 5.2 100 100 NNW 3 6 30.4 1029 0.25 0.402335 0 0
10:35 am 10:35 Cloudy with Mist and Fog 42 5.8 42 5.8 100 100 Calm 30.39 1029 5 8.0467 0 0
10:55 am 10:55 Mostly Cloudy 44 6.5 44 6.4 99 99 Calm 30.38 1029 10 16.0934 0 0
11:15 am 11:15 Partly Cloudy 46 7.7 43 6.1 90 90 N 3 6 30.37 1029 10 16.0934 0 0
11:35 am 11:35 Partly Cloudy 47 8.4 43 6.1 86 86 Calm 30.37 1028 10 16.0934 0 0
11:55 am 11:55 Sunny 49 9.3 44 6.6 83 83 Calm 30.36 1028 10 16.0934 0 0
12:15 pm 12:15 Sunny 50 9.8 44 6.6 81 81 Calm 30.35 1028 10 16.0934 0 0
12:35 pm 12:35 Sunny 51 10.4 44 6.5 77 77 Calm 30.34 1027 10 16.0934 0 0
12:55 pm 12:55 Sunny 54 12.2 45 7.3 72 72 WNW 5 7 30.32 1027 10 16.0934 0 0
1:15 pm 13:15 Sunny 55 12.5 44 6.8 68 68 Calm 30.32 1027 10 16.0934 0 0
1:35 pm 13:35 Sunny 56 13.4 43 6.3 62 62 S 5 7 30.3 1026 10 16.0934 0 0
1:55 pm 13:55 Sunny 56 13.6 43 6.1 61 61 Calm 30.29 1026 10 16.0934 0 0
2:15 pm 14:15 Sunny 57 14 43 6 59 59 Calm 30.27 1025 10 16.0934 0 0
2:35 pm 14:35 Sunny 58 14.5 43 6.3 58 58 ESE 5 7 30.27 1025 10 16.0934 0 0
2:55 pm 14:55 Sunny 58 14.7 43 5.9 56 56 ESE 3 6 30.26 1025 10 16.0934 0 0
3:15 pm 15:15 Sunny 60 15.5 43 5.9 53 53 ESE 5 7 30.24 1024 10 16.0934 0 0
3:35 pm 15:35 Sunny 60 15.5 40 4.3 47 47 Calm 30.23 1024 10 16.0934 0 0
3:55 pm 15:55 Sunny 61 15.9 42 5.8 51 51 Calm 30.23 1024 10 16.0934 0 0
4:15 pm 16:15 Sunny 61 16.1 41 5.2 49 49 SE 6 9 30.22 1023 10 16.0934 0 0
4:35 pm 16:35 Sunny 61 16.3 40 4.6 46 46 SSE 6 9 30.21 1023 10 16.0934 0 0
4:55 pm 16:55 Sunny 62 16.5 41 5 47 47 E 5 7 30.21 1023 10 16.0934 0 0
5:15 pm 17:15 Sunny 62 16.6 42 5.4 48 48 SE 5 7 30.21 1023 10 16.0934 0 0
5:35 pm 17:35 Sunny 62 16.5 42 5.4 48 48 SE 7 11 30.21 1023 10 16.0934 0 0
5:55 pm 17:55 Sunny 62 16.5 42 5.3 48 48 SE 9 15 30.21 1023 10 16.0934 0 0
6:15 pm 18:15 Sunny 61 16.1 41 4.9 48 48 SSE 7 11 30.21 1023 10 16.0934 0 0
6:35 pm 18:35 Sunny 60 15.7 42 5.3 50 50 SE 7 11 30.21 1023 10 16.0934 0 0
6:55 pm 18:55 Sunny 59 14.8 44 6.5 58 58 E 6 9 30.22 1023 10 16.0934 0 0
7:35 pm 19:35 Clear 56 13.2 43 6.1 62 62 ESE 7 11 30.24 1024 10 16.0934 0 0
7:55 pm 19:55 Clear 55 12.5 44 6.6 68 68 ESE 7 11 30.25 1024 10 16.0934 0 0
8:15 pm 20:15 Clear 54 12.2 43 6.3 67 67 ESE 7 11 30.26 1025 10 16.0934 0 0
8:35 pm 20:35 Clear 53 11.5 43 6.3 71 71 E 7 11 30.26 1025 10 16.0934 0 0
8:55 pm 20:55 Partly Cloudy 53 11.6 43 6 69 69 ESE 9 15 30.27 1025 10 16.0934 0 0
9:15 pm 21:15 Mostly Cloudy 53 11.5 43 6 69 69 ESE 10 17 30.28 1025 10 16.0934 0 0
9:35 pm 21:35 Cloudy 52 11 43 6.1 72 72 E 9 15 30.28 1025 10 16.0934 0 0
9:55 pm 21:55 Cloudy 51 10.4 44 6.6 78 78 E 8 13 30.29 1026 10 16.0934 0 0
10:15 pm 22:15 Mostly Cloudy 49 9.6 44 6.6 82 82 E 7 11 30.29 1026 10 16.0934 0 0
10:35 pm 22:35 Partly Cloudy 48 9 44 6.5 85 85 E 7 11 30.31 1026 10 16.0934 0 0
10:55 pm 22:55 Partly Cloudy 48 9.1 44 6.5 84 84 E 6 9 30.31 1026 10 16.0934 0 0
11:15 pm 23:15 Mostly Cloudy 48 9 44 6.5 85 85 ESE 6 9 30.32 1027 10 16.0934 0 0
11:35 pm 23:35 Mostly Cloudy 48 8.8 43 6.3 84 84 E 6 9 30.32 1027 10 16.0934 0 0
11:55 pm 23:55 Cloudy 48 8.7 43 6.3 85 85 ESE 7 11 30.31 1027 10 16.0934 0 0

Powered by AerisWeather